Home > Time Zones > World Clock > Weather > China > Sian > Past weeks

Flag for China Weather past 2 weeks in Sian, Shaanxi, China

Now
52 °F

Haze.


Feels Like: 51 °F
Forecast: 24 / 54 °F
Wind: 3 mph from East

Location: Xian/Xianyang

Current Time: Dec 29, 2014 at 1:22:46 PM

Latest Report: Dec 29, 2014 at 1:00 PM


Visibility: 2 mi

Pressure: 30.04 "Hg

Humidity: 26%

Dew point: 18 °F

Location of SianLocation

Historic Weather in Sian — Graph

°F

Sian temperature yesterday

Maximum temperature yesterday: 57 °F (at 3:00 PM)
Minimum temperature yesterday: 27 °F (at 6:00 AM)
Average temperature yesterday: 37 °F

Past Weeks' High & Low Weather Summary

 TemperatureHumidityPressure
High57 °F (Dec 28, 3:00 PM)86% (Dec 18, 7:00 AM)30.80 "Hg (Dec 18, 7:00 AM)
Low14 °F (Dec 17, 6:00 AM)16% (Dec 16, 1:00 PM)30.09 "Hg (Dec 29, 2:00 AM)
Average32 °F50%30.40 "Hg
* Reported Dec 14 12:00 Noon — Dec 29 12:00 Noon, Sian, Weather by CustomWeather, © 2014

Note: Actual official high and low records may vary slightly from our data, if they occured in-between our weather recording intervals... More about our weather records

Advertising

Sian weather history for previous 24 hours

 ConditionsComfort  
Time TempWeatherWind HumidityBarometerVisibility
12:00 PM
Dec 29
50 °FHaze.1 mph28%30.09 "Hg2 mi
11:00 AM46 °FHaze.1 mph32%30.12 "Hg2 mi
10:00 AM41 °FHaze.1 mph42%30.12 "Hg2 mi
9:00 AM32 °FHaze.1 mph60%30.12 "Hg3 mi
8:00 AM19 °FIce fog.1 mph79%30.09 "Hg3 mi
7:00 AM21 °FClear.1 mph80%30.09 "Hg4 mi
6:00 AM21 °FClear.1 mph80%30.09 "Hg4 mi
5:00 AM21 °FClear.No wind80%30.09 "Hg4 mi
4:00 AM21 °FClear.No wind80%30.09 "Hg4 mi
3:00 AM27 °FClear.1 mph64%30.09 "Hg4 mi
2:00 AM32 °FClear.6 mph44%30.09 "Hg4 mi
1:00 AM36 °FHaze.3 mph44%30.12 "Hg3 mi
12:00 AM34 °FHaze.6 mph56%30.12 "Hg2 mi
11:00 PM
Dec 28
30 °FHaze.6 mph69%30.15 "Hg2 mi
10:00 PM30 °FHaze.6 mph69%30.15 "Hg2 mi
9:00 PM28 °FHaze.3 mph74%30.15 "Hg2 mi
8:00 PM34 °FHaze.3 mph60%30.15 "Hg2 mi
7:00 PM32 °FHaze.1 mph64%30.15 "Hg2 mi
6:00 PM46 °FHaze.1 mph37%30.15 "Hg3 mi
5:00 PM54 °FHaze.3 mph30%30.15 "Hg3 mi
4:00 PM57 °FClear.3 mph27%30.18 "Hg4 mi
3:00 PM57 °FHaze.1 mph29%30.18 "Hg3 mi
2:00 PM54 °FHaze.6 mph33%30.21 "Hg2 mi
1:00 PM52 °FHaze.3 mph35%30.27 "Hg2 mi
Weather by CustomWeather, © 2014

See weather overviewHow to use our weather pages